FW6711 Weather Reports


time (UTC)temp
C
wind
direction
speed
KPH
gust
KPH
rain 1hr
cm
rain 24hr
cm
rain mn
cm
humidity
%
barometer
mb
20210927070133 12 139 0.0 0.0 0.00 0.00 0.00 98 975.7
20210927064638 12 139 0.0 0.0 0.00 0.00 0.00 98 975.6
20210927063147 12 139 0.0 0.0 0.00 0.00 0.00 98 975.7
20210927061608 12 139 0.0 1.6 0.00 0.00 0.00 98 975.6
20210927060124 12 139 0.0 0.0 0.00 0.00 0.00 98 975.6
20210927054544 12 139 0.0 0.0 0.00 0.00 0.00 98 975.5
20210927053107 12 139 0.0 0.0 0.00 0.00 0.00 98 975.6
20210927051606 12 139 0.0 0.0 0.00 0.00 0.00 97 975.4
20210927050057 12 139 0.0 0.0 0.00 0.00 0.00 98 975.5
20210927044620 12 139 0.0 0.0 0.00 0.00 0.00 97 975.5
20210927043100 12 139 0.0 0.0 0.00 0.00 0.00 97 975.5
20210927041537 12 139 0.0 0.0 0.00 0.00 0.00 97 975.4
20210927040050 13 139 0.0 0.0 0.00 0.00 0.00 97 975.5
20210927034600 13 139 0.0 0.0 0.00 0.00 0.00 97 975.4
20210927033113 13 139 0.0 0.0 0.00 0.00 0.00 97 975.4
20210927031615 13 139 0.0 0.0 0.00 0.00 0.00 96 975.4
20210927030034 13 139 0.0 0.0 0.00 0.00 0.00 97 975.3
20210927024601 13 139 0.0 0.0 0.00 0.00 0.00 96 975.3
20210927023056 14 139 0.0 0.0 0.00 0.00 0.00 96 975.3
20210927021617 14 139 0.0 0.0 0.00 0.00 0.00 96 975.3
20210927020057 14 139 0.0 0.0 0.00 0.00 0.00 95 975.3
20210927014551 15 139 0.0 0.0 0.00 0.00 0.00 95 975.2
20210927013058 15 139 0.0 0.0 0.00 0.00 0.00 95 975.1
20210927011551 15 139 0.0 0.0 0.00 0.00 0.00 94 975.0
20210927010049 15 139 0.0 0.0 0.00 0.00 0.00 93 974.9
20210927004603 16 139 0.0 0.0 0.00 0.00 0.00 92 974.8
20210927003054 16 139 0.0 0.0 0.00 0.00 0.00 91 974.6
20210927001548 16 139 0.0 0.0 0.00 0.00 0.00 89 974.5
20210927000032 17 139 0.0 0.0 0.00 0.00 0.00 88 974.4
20210926234537 17 139 0.0 0.0 0.00 0.00 0.00 85 974.3
20210926233109 18 139 0.0 0.0 0.00 0.00 0.00 82 974.4
20210926231530 19 139 0.0 0.0 0.00 0.00 0.00 79 974.3
20210926230033 20 139 0.0 0.0 0.00 0.00 0.00 76 974.2
20210926224546 21 139 0.0 1.6 0.00 0.00 0.00 72 974.3
20210926223041 22 92 0.0 1.6 0.00 0.00 0.00 69 974.2
20210926221620 22 319 0.0 4.8 0.00 0.00 0.00 65 974.0
20210926220032 23 154 0.0 3.2 0.00 0.00 0.00 63 973.9
20210926214530 24 94 0.0 4.8 0.00 0.00 0.00 57 974.0
20210926213041 25 24 0.0 6.4 0.00 0.00 0.00 56 974.0
20210926211602 25 340 0.0 6.4 0.00 0.00 0.00 54 974.0
20210926210037 25 355 0.0 9.7 0.00 0.00 0.00 51 974.0
20210926204616 26 319 0.0 4.8 0.00 0.00 0.00 50 974.1
20210926203018 26 338 1.6 9.7 0.00 0.00 0.00 48 974.2
20210926201551 26 316 0.0 6.4 0.00 0.00 0.00 50 974.1
20210926200013 26 332 1.6 6.4 0.00 0.00 0.00 54 974.2
20210926194527 25 28 0.0 4.8 0.00 0.00 0.00 53 974.3
20210926193010 25 323 0.0 4.8 0.00 0.00 0.00 54 974.5
20210926191513 25 350 0.0 1.6 0.00 0.00 0.00 58 974.7
20210926190023 25 323 0.0 1.6 0.00 0.00 0.00 57 974.7
20210926184509 25 343 0.0 1.6 0.00 0.00 0.00 57 974.9
20210926183020 26 288 1.6 9.7 0.00 0.00 0.00 53 975.2
20210926181507 25 35 1.6 9.7 0.00 0.00 0.00 50 975.3
20210926180005 26 186 1.6 8.0 0.00 0.00 0.00 50 975.6
20210926174505 25 91 0.0 6.4 0.00 0.00 0.00 49 975.8
20210926173001 25 333 1.6 8.0 0.00 0.00 0.00 53 975.9
20210926171917 25 82 1.6 9.7 0.00 0.00 0.00 51 976.1
20210926170114 25 331 0.0 11.3 0.00 0.00 0.00 54 976.2
20210926164715 23 28 0.0 4.8 0.00 0.00 0.00 61 976.4
20210926163144 23 63 0.0 6.4 0.00 0.00 0.00 60 976.6
20210926161633 23 96 0.0 8.0 0.00 0.00 0.00 61 976.6
20210926160125 23 313 0.0 8.0 0.00 0.00 0.00 65 976.7
20210926154808 23 349 0.0 3.2 0.00 0.00 0.00 64 976.6
20210926153236 22 73 0.0 6.4 0.00 0.00 0.00 68 976.7
20210926151650 21 338 0.0 3.2 0.00 0.00 0.00 72 976.7
20210926150116 21 158 0.0 1.6 0.00 0.00 0.00 76 976.8
20210926144535 19 313 0.0 3.2 0.00 0.00 0.00 81 976.8
20210926143101 18 41 1.6 6.4 0.00 0.00 0.00 85 976.7
20210926141534 17 190 0.0 0.0 0.00 0.00 0.00 95 976.7
20210926140022 15 190 0.0 0.0 0.00 0.03 0.00 99 976.6
20210926134524 14 190 0.0 0.0 0.00 0.03 0.00 99 976.4
20210926133017 13 190 0.0 0.0 0.00 0.03 0.00 99 976.4
20210926131528 12 190 0.0 0.0 0.00 0.03 0.00 99 976.3
20210926130004 12 190 0.0 0.0 0.00 0.03 0.00 99 976.2
20210926124514 11 190 0.0 0.0 0.00 0.03 0.00 99 975.9
20210926123133 10 190 0.0 0.0 0.00 0.03 0.00 99 975.9
20210926121637 10 190 0.0 0.0 0.00 0.03 0.00 98 975.7
20210926120156 10 190 0.0 0.0 0.00 0.03 0.00 98 975.6
20210926114754 10 190 0.0 0.0 0.00 0.03 0.00 98 975.5
20210926113135 10 190 0.0 0.0 0.00 0.03 0.00 98 975.3
20210926111635 10 190 0.0 0.0 0.00 0.03 0.00 98 975.3
20210926110108 10 190 0.0 0.0 0.00 0.03 0.00 98 975.2
20210926104604 10 190 0.0 0.0 0.00 0.03 0.00 98 975.1
20210926103056 10 190 0.0 0.0 0.00 0.03 0.00 98 975.2
20210926101604 10 190 0.0 0.0 0.00 0.03 0.00 98 974.9
20210926100058 10 190 0.0 0.0 0.00 0.03 0.00 98 974.8
20210926094759 10 190 0.0 0.0 0.00 0.03 0.00 98 974.8
20210926093347 10 190 0.0 0.0 0.00 0.03 0.00 98 974.7
20210926091634 10 190 0.0 0.0 0.00 0.03 0.00 98 974.7
20210926090045 11 190 0.0 0.0 0.00 0.03 0.00 98 974.6
20210926084721 11 190 0.0 0.0 0.00 0.03 0.00 98 974.5
20210926083108 11 190 0.0 0.0 0.00 0.03 0.00 98 974.5
20210926081657 11 190 0.0 0.0 0.00 0.03 0.00 98 974.6
20210926080123 11 190 0.0 0.0 0.00 0.03 0.00 98 974.5
20210926074646 11 190 0.0 0.0 0.00 0.03 0.00 98 974.6
20210926073057 11 190 0.0 0.0 0.00 0.03 0.00 98 974.5
20210926071548 11 190 0.0 0.0 0.00 0.03 0.00 98 974.4